Wind_Speed
29 29 28 26 25 24 24 24 24 24 24 25 25 25 27 29 29 28 28 28 27 28 28 27 27 26 26 26 25 25 24 24 24 24 25 26 26 27 27 27 27 27 27
28 28 28 27 26 25 25 26 25 25 25 26 26 27 28 28 28 29 27 27 28 28 28 27 27 27 27 26 27 27 27 27 27 27 27 27 27 28 28 28 29 29 30
28 28 28 27 26 26 26 26 26 26 26 26 27 28 28 29 30 30 30 29 28 26 27 27 25 25 25 25 25 26 26 28 28 27 28 28 29 30 30 31 31 32 33
27 27 27 27 27 27 26 27 27 27 27 27 27 27 28 26 26 27 28 28 27 27 27 26 26 26 25 25 26 27 27 27 28 28 28 30 31 32 32 33 34 34 36
26 26 26 27 27 27 27 27 27 27 26 25 26 25 25 24 25 26 26 26 27 27 27 26 26 26 26 26 27 27 28 29 29 30 31 32 33 34 35 36 37 38 38
25 25 25 25 26 27 27 27 27 27 26 26 25 24 22 22 23 25 26 26 27 28 28 27 27 28 29 30 30 29 30 31 32 32 34 35 36 37 38 39 39 40 41
25 25 25 25 25 26 27 26 26 26 26 27 26 24 22 22 24 25 25 25 26 27 28 28 29 30 30 30 30 31 32 33 34 35 36 37 38 39 39 40 41 42 43
26 25 25 25 25 25 26 26 26 27 27 28 27 25 24 23 24 24 24 24 25 25 26 27 28 30 31 31 32 32 32 34 35 36 37 39 39 40 41 42 42 43 44
24 25 25 26 26 25 26 27 26 26 27 27 27 26 24 23 24 24 25 25 25 25 25 26 26 27 29 30 32 32 34 35 36 37 38 39 40 41 41 42 43 43 44
22 23 25 25 25 25 25 25 25 25 25 26 26 24 24 24 24 25 26 26 25 25 26 27 28 28 29 30 32 34 35 36 37 38 39 40 41 41 42 42 43 44 45
23 24 25 26 25 25 25 25 25 24 24 24 25 25 24 25 25 26 26 26 26 27 28 29 29 30 32 33 34 36 36 37 38 39 40 40 41 42 43 43 44 44 45
20 22 23 24 24 24 25 25 24 24 25 25 25 25 25 25 25 25 26 26 26 27 28 29 30 31 32 33 34 34 35 37 38 39 39 40 40 41 42 42 43 43 43
17 19 21 22 24 24 25 25 25 24 24 25 25 25 25 25 25 25 26 26 26 28 28 28 29 30 31 32 33 34 36 37 37 38 38 39 40 40 41 41 41 41 41
15 15 17 19 20 22 23 24 24 24 24 25 25 25 25 25 26 27 27 27 27 28 28 28 29 30 31 32 34 34 35 35 35 36 37 37 38 38 39 39 39 39 38
13 13 15 17 18 20 21 22 23 24 24 24 24 24 24 25 25 26 27 27 27 27 28 29 30 31 32 33 34 34 34 34 34 35 35 36 36 36 36 36 36 36 36
13 14 15 16 18 19 21 22 22 23 23 23 23 23 23 23 24 25 26 26 27 28 29 30 30 31 31 32 32 32 32 32 32 33 33 33 33 33 33 33 33 32 32
13 14 15 16 17 18 19 20 22 22 22 22 23 23 23 23 23 24 25 26 26 27 28 29 29 30 30 30 30 30 29 29 30 30 30 30 30 30 30 29 28 28 28
13 14 15 16 17 17 18 19 20 21 22 22 22 22 22 23 23 24 24 24 25 25 26 27 27 27 27 27 27 27 27 27 27 27 27 27 26 26 25 25 25 25 25
13 14 15 16 16 17 18 18 18 19 19 20 20 21 22 22 23 23 23 24 24 25 25 25 25 25 25 25 25 25 25 25 24 24 24 23 23 23 23 23 23 23 23
13 14 15 15 16 16 16 17 17 18 18 18 18 19 21 22 22 22 23 23 24 24 24 24 23 24 24 23 22 22 22 22 21 21 22 22 22 22 21 21 22 22 21
13 13 15 15 15 16 16 16 16 16 17 17 18 19 20 20 20 20 21 21 21 21 21 21 21 21 21 20 20 20 20 20 20 20 20 20 20 20 20 20 20 20 19
13 14 14 15 15 15 16 16 16 16 17 17 17 17 18 18 19 18 19 19 19 19 19 19 19 18 18 18 18 17 17 18 18 17 17 17 17 17 17 17 18 18 17
12 13 14 15 14 14 15 15 15 16 16 15 16 16 16 17 17 17 18 18 18 18 17 17 17 16 16 15 15 15 15 15 15 15 15 15 15 15 15 16 16 16 16
11 12 13 13 13 13 13 14 14 14 15 15 15 15 15 15 15 16 16 16 16 16 15 15 14 13 12 12 12 12 13 13 13 14 14 14 13 13 14 14 14 14 14
10 10 10 10 10 11 11 12 12 12 13 13 13 13 13 13 13 13 13 13 13 12 12 12 11 10 10 10 10 11 11 12 12 12 12 12 12 13 13 13 13 13 13
9 10 10 10 10 10 10 10 10 10 10 11 11 11 11 11 11 11 11 11 10 10 9 9 8 8 8 9 10 10 10 10 11 11 11 12 12 13 13 12 12 12 12
Wind_Direction
242 245 248 251 253 256 258 260 264 268 268 265 258 257 256 252 251 246 244 242 243 241 239 239 242 244 245 247 249 256 260 263 265 267 271 274 276 278 278 280 282 282 282
241 243 247 249 251 254 257 259 263 264 266 264 262 261 259 257 250 246 244 246 247 245 244 243 246 247 248 250 253 257 260 263 266 268 272 274 277 278 278 280 281 282 282
242 244 246 247 251 255 259 262 265 265 266 266 266 262 261 262 251 244 244 247 246 246 244 244 247 248 252 256 259 262 264 267 268 270 273 275 279 281 280 280 281 283 283
242 245 247 249 252 255 257 261 264 264 265 266 270 265 261 258 246 242 246 247 244 245 246 247 248 253 257 261 264 264 266 271 272 274 277 278 280 281 282 282 283 284 284
244 247 250 251 252 254 256 259 261 265 267 268 270 270 265 256 246 246 248 249 250 250 249 250 252 255 258 262 264 265 268 272 274 275 277 279 281 283 283 285 285 286 285
248 249 253 255 254 255 256 259 261 265 267 269 271 270 266 260 252 249 250 253 252 251 251 252 255 259 261 263 264 267 271 273 275 277 279 281 283 283 285 286 286 287 287
253 252 253 256 257 256 257 260 262 265 267 270 271 269 264 260 256 254 254 253 252 253 254 257 260 261 262 265 267 270 272 274 276 279 282 283 284 285 285 285 286 286 287
255 256 257 258 257 257 258 261 263 264 266 268 267 267 267 264 263 262 264 262 259 260 260 261 264 265 265 268 271 273 275 276 278 280 282 284 285 285 285 285 285 286 286
255 256 258 258 258 259 259 260 262 266 268 268 266 268 267 267 267 267 267 266 265 263 264 265 270 270 270 272 274 274 276 277 278 280 282 283 284 284 285 285 286 286 286
259 258 258 261 260 260 260 261 263 266 267 267 266 268 269 268 268 268 266 264 263 264 265 266 269 272 273 273 274 275 277 278 279 280 281 283 283 283 285 286 286 287 287
260 260 261 261 260 260 260 262 266 268 266 266 267 266 266 266 268 268 266 264 264 266 266 267 270 272 272 274 276 277 278 279 280 281 282 283 284 284 286 286 286 287 288
265 264 263 259 259 259 260 261 263 266 266 265 266 265 264 265 266 267 267 267 269 270 272 273 273 274 275 276 278 280 281 281 281 282 283 284 285 286 286 287 287 288 289
268 265 265 262 261 261 261 260 263 265 265 264 265 266 266 267 267 267 267 268 270 272 274 276 277 277 277 278 280 281 282 283 283 283 284 285 287 287 288 288 289 289 290
273 267 263 263 263 262 262 262 263 266 266 265 265 266 267 268 268 268 269 270 272 273 275 277 277 278 279 280 282 282 283 284 284 285 286 288 289 289 289 290 289 290 291
280 273 271 267 267 266 265 265 265 266 265 265 265 265 266 268 268 268 270 271 272 273 275 277 279 280 281 282 283 284 284 284 285 286 287 288 289 290 291 292 291 291 292
288 280 275 273 271 271 270 269 268 268 267 266 266 267 268 269 268 268 271 274 275 275 276 278 280 281 283 285 285 285 285 285 286 288 289 289 290 292 293 293 293 294 295
290 286 283 281 278 277 275 271 269 268 268 269 268 267 268 268 270 271 273 275 276 277 279 280 282 284 285 286 286 287 287 288 289 290 290 291 293 294 295 295 296 299 301
291 290 288 286 282 279 276 274 272 272 272 271 270 269 268 270 272 274 276 277 278 280 282 283 284 286 287 288 288 288 288 289 289 290 292 292 294 296 298 299 300 302 304
287 286 287 287 284 280 278 276 276 275 273 272 272 271 271 272 274 275 277 279 281 283 283 285 286 287 288 288 289 289 289 290 291 292 292 294 296 298 300 301 303 305 306
289 287 288 292 289 282 279 277 277 277 275 273 272 275 275 274 275 276 279 280 280 282 284 286 287 288 289 290 290 291 291 292 293 294 295 296 298 300 302 304 306 307 309
290 289 289 290 288 286 283 282 280 279 279 276 276 276 277 276 277 278 280 281 282 283 286 288 288 290 292 293 294 295 295 294 295 296 298 300 301 303 305 307 309 310 312
293 292 292 289 288 288 286 284 284 283 283 284 284 281 279 280 281 283 284 286 287 288 288 289 289 290 291 293 294 296 296 298 299 301 303 305 307 308 310 311 312 314 315
298 296 296 296 294 292 291 289 288 285 284 285 287 287 286 287 288 289 290 291 292 292 291 290 289 289 290 292 295 299 302 304 304 305 308 310 311 313 314 316 317 318 319
306 304 302 301 299 296 294 294 292 291 289 288 289 289 290 292 292 293 292 292 293 294 293 292 292 292 291 294 298 303 305 307 310 312 313 315 316 319 320 321 322 323 323
320 317 316 313 308 305 302 299 297 298 298 296 294 293 294 296 298 298 297 297 298 298 298 297 296 295 295 297 301 305 308 310 314 316 318 320 322 323 323 323 324 325 326
333 330 328 324 319 314 312 309 308 307 306 305 304 305 306 305 305 305 304 302 302 302 303 302 302 302 302 303 305 309 312 315 319 321 322 323 324 324 325 327 329 330 331
Height
5811 5813 5815 5817 5819 5821 5822 5823 5823 5823 5824 5825 5826 5827 5828 5829 5830 5831 5832 5834 5835 5836 5836 5838 5839 5840 5841 5842 5842 5843 5843 5842 5842 5842 5841 5841 5840 5839 5838 5837 5836 5835 5833
5804 5807 5810 5812 5814 5815 5816 5817 5818 5818 5818 5819 5819 5820 5821 5821 5822 5824 5825 5827 5828 5829 5831 5832 5833 5834 5835 5836 5837 5837 5836 5836 5836 5836 5835 5834 5834 5833 5832 5831 5830 5828 5827
5798 5801 5803 5806 5808 5809 5810 5811 5812 5813 5813 5813 5813 5813 5813 5813 5815 5817 5819 5820 5822 5823 5824 5826 5827 5828 5829 5830 5830 5830 5830 5830 5830 5829 5829 5828 5827 5826 5825 5824 5822 5821 5819
5792 5795 5797 5800 5802 5803 5804 5805 5806 5807 5807 5806 5807 5806 5806 5806 5807 5810 5812 5813 5814 5816 5817 5819 5820 5822 5823 5824 5824 5824 5824 5823 5823 5822 5822 5821 5820 5819 5818 5816 5814 5813 5811
5787 5790 5792 5794 5796 5797 5798 5800 5801 5801 5801 5800 5801 5801 5800 5800 5801 5803 5806 5807 5808 5810 5811 5813 5814 5815 5816 5817 5817 5817 5817 5817 5816 5815 5814 5813 5812 5811 5809 5808 5806 5804 5802
5782 5784 5786 5788 5790 5791 5792 5793 5794 5795 5795 5795 5794 5794 5794 5794 5796 5798 5799 5800 5801 5803 5804 5806 5807 5808 5809 5810 5810 5810 5809 5809 5808 5807 5806 5805 5803 5802 5800 5798 5796 5794 5792
5776 5778 5780 5782 5783 5785 5786 5786 5787 5788 5789 5789 5789 5789 5788 5788 5790 5791 5792 5793 5794 5796 5798 5799 5800 5801 5801 5802 5802 5802 5802 5801 5800 5799 5798 5796 5794 5792 5790 5788 5786 5784 5782
5770 5772 5774 5775 5777 5778 5779 5780 5781 5781 5782 5783 5783 5782 5782 5783 5784 5785 5785 5786 5787 5789 5790 5791 5792 5793 5793 5793 5794 5793 5793 5792 5791 5790 5789 5787 5785 5783 5781 5778 5776 5773 5771
5764 5766 5767 5769 5770 5771 5772 5773 5774 5775 5775 5776 5776 5776 5776 5777 5778 5778 5779 5780 5781 5782 5783 5784 5784 5785 5785 5785 5785 5784 5784 5783 5782 5781 5779 5777 5774 5772 5770 5768 5765 5763 5760
5759 5760 5761 5762 5763 5764 5765 5766 5767 5767 5767 5768 5769 5768 5769 5770 5771 5771 5772 5773 5774 5775 5775 5776 5776 5777 5777 5777 5776 5775 5774 5773 5772 5770 5768 5766 5764 5762 5759 5757 5754 5751 5749
5753 5754 5755 5755 5756 5757 5758 5759 5760 5760 5760 5761 5761 5762 5762 5763 5764 5764 5765 5766 5766 5767 5767 5768 5768 5768 5768 5767 5767 5766 5765 5763 5762 5760 5758 5756 5754 5751 5749 5746 5743 5740 5737
5747 5747 5748 5749 5750 5751 5752 5752 5753 5754 5754 5754 5755 5755 5756 5756 5757 5757 5757 5758 5759 5759 5759 5759 5759 5759 5759 5758 5757 5756 5755 5753 5751 5750 5748 5746 5743 5741 5738 5735 5732 5729 5725
5742 5742 5742 5743 5744 5744 5745 5746 5746 5747 5747 5748 5748 5748 5749 5749 5750 5750 5750 5751 5751 5751 5751 5751 5751 5750 5750 5749 5748 5747 5745 5743 5742 5740 5738 5736 5733 5730 5728 5724 5721 5718 5715
5736 5736 5736 5737 5737 5737 5738 5739 5739 5740 5740 5740 5740 5741 5741 5741 5742 5743 5743 5743 5743 5743 5743 5743 5743 5742 5741 5740 5738 5737 5735 5733 5732 5730 5728 5726 5723 5720 5717 5714 5711 5708 5704
5732 5732 5731 5731 5731 5731 5731 5731 5732 5732 5733 5733 5733 5734 5734 5734 5735 5735 5735 5735 5736 5735 5735 5735 5734 5733 5732 5730 5729 5727 5725 5724 5722 5720 5718 5716 5713 5710 5707 5704 5701 5698 5695
5727 5727 5726 5726 5726 5725 5725 5725 5725 5725 5725 5726 5726 5727 5727 5727 5727 5728 5728 5728 5728 5727 5727 5726 5725 5724 5723 5721 5719 5718 5716 5715 5713 5711 5709 5706 5704 5701 5698 5695 5692 5689 5686
5723 5722 5721 5720 5720 5719 5719 5718 5718 5718 5719 5719 5719 5720 5720 5720 5720 5721 5721 5720 5720 5719 5719 5718 5717 5715 5714 5712 5711 5709 5708 5706 5704 5702 5700 5698 5695 5693 5690 5687 5684 5681 5677
5718 5717 5716 5716 5715 5714 5713 5712 5712 5712 5712 5712 5712 5713 5713 5713 5713 5713 5713 5713 5712 5712 5711 5710 5709 5707 5706 5704 5703 5701 5700 5698 5696 5694 5692 5690 5688 5685 5682 5680 5677 5674 5671
5714 5713 5712 5711 5710 5709 5708 5707 5706 5706 5706 5706 5706 5706 5707 5707 5707 5707 5706 5706 5705 5705 5704 5703 5701 5700 5699 5697 5696 5694 5693 5691 5689 5687 5685 5683 5681 5679 5676 5673 5671 5667 5664
5709 5708 5707 5706 5705 5704 5703 5702 5702 5701 5701 5701 5701 5700 5700 5700 5700 5700 5700 5699 5699 5698 5697 5696 5695 5693 5692 5691 5689 5688 5686 5684 5683 5681 5679 5677 5675 5672 5670 5667 5664 5662 5659
5705 5704 5703 5702 5701 5699 5698 5698 5697 5697 5696 5696 5696 5695 5695 5695 5694 5694 5693 5693 5692 5691 5690 5689 5688 5687 5686 5685 5683 5682 5680 5679 5677 5675 5673 5671 5669 5667 5664 5662 5659 5657 5654
5702 5700 5699 5697 5696 5695 5694 5693 5693 5692 5691 5691 5691 5690 5690 5689 5689 5688 5687 5686 5685 5685 5684 5683 5682 5681 5681 5680 5678 5677 5675 5673 5672 5670 5668 5666 5664 5662 5659 5657 5655 5652 5650
5698 5697 5695 5693 5692 5691 5690 5689 5688 5688 5687 5686 5686 5685 5684 5684 5683 5682 5682 5681 5680 5679 5678 5678 5677 5676 5676 5675 5673 5672 5671 5669 5667 5665 5663 5662 5660 5658 5656 5653 5651 5649 5646
5695 5693 5692 5690 5689 5687 5686 5685 5684 5683 5683 5682 5681 5681 5680 5679 5678 5678 5677 5676 5675 5674 5673 5673 5672 5671 5671 5670 5669 5668 5667 5665 5664 5662 5660 5658 5656 5654 5652 5650 5648 5646 5643
5693 5691 5689 5687 5686 5684 5683 5682 5681 5680 5679 5678 5677 5677 5676 5675 5674 5673 5673 5672 5671 5670 5669 5669 5668 5667 5667 5666 5666 5665 5664 5662 5661 5659 5657 5656 5654 5652 5650 5647 5645 5643 5641
5691 5689 5687 5685 5683 5682 5681 5680 5679 5677 5676 5675 5674 5674 5673 5672 5671 5670 5669 5668 5668 5667 5666 5666 5665 5665 5664 5664 5663 5662 5661 5659 5658 5657 5655 5653 5651 5649 5647 5645 5643 5641 5638